Temperature
17 17 17 17 17 17 17 17 17 17 17 17 17 17 17 17 17 17 17 17 17 17 17 17 17 17 17 17 17 16 16 16 16 16 16 16 16 16 16 16 16 15 15
17 17 17 17 17 17 17 17 17 17 17 17 17 17 17 17 17 17 17 17 17 17 17 17 17 17 17 17 16 16 16 16 16 16 16 16 16 16 16 16 16 15 15
17 17 17 17 17 17 17 17 17 17 17 17 17 17 17 17 17 17 17 17 17 17 17 17 17 17 17 16 16 16 16 16 16 16 16 16 16 16 16 16 16 15 15
17 17 17 17 17 17 17 17 17 17 17 17 17 17 17 17 17 17 17 17 17 17 17 17 17 17 16 16 16 16 16 16 16 16 16 16 16 16 16 16 15 15 15
17 17 17 17 17 17 17 17 17 17 17 17 17 17 17 17 17 17 17 17 17 17 17 17 17 16 16 16 16 16 16 16 16 16 16 16 16 16 16 15 15 15 15
17 17 17 17 17 17 17 17 17 17 17 17 17 17 17 17 17 17 17 17 17 17 17 16 16 16 16 16 16 16 16 16 16 16 16 16 16 15 15 15 15 15 15
17 17 17 17 17 17 17 17 17 17 17 17 17 17 17 17 17 17 17 17 17 17 16 16 16 16 16 16 16 16 16 16 16 16 15 15 15 15 15 15 15 15 15
17 17 17 17 17 17 17 17 17 17 17 17 17 17 16 17 16 17 17 17 17 16 16 16 16 16 16 16 16 16 16 16 16 16 15 15 15 15 15 15 15 15 15
17 18 17 17 17 17 17 17 17 17 17 17 17 17 17 16 16 16 16 17 16 16 16 16 16 16 16 16 16 16 15 15 15 15 15 15 15 15 15 15 15 15 15
18 18 18 17 17 17 17 17 17 17 17 17 17 17 17 16 16 16 16 16 16 16 16 16 16 16 16 16 16 15 15 15 15 15 15 15 15 15 15 15 14 14 14
18 18 18 18 17 17 17 17 17 17 17 17 17 17 17 16 16 16 16 16 16 16 16 16 16 16 16 16 15 15 15 15 15 15 15 15 15 15 15 14 14 14 14
18 18 18 18 18 17 17 17 17 17 17 17 17 17 17 16 17 16 16 16 16 16 16 16 16 16 16 16 15 15 15 15 15 15 15 15 15 14 14 14 14 14 14
18 18 18 18 18 18 17 17 17 17 17 17 17 17 17 17 16 16 16 16 16 16 16 16 16 16 16 16 15 15 15 15 15 15 15 15 14 14 14 14 14 14 14
18 18 18 18 18 18 17 17 17 17 17 17 17 17 17 17 16 16 16 16 16 16 16 16 16 16 16 16 15 15 15 15 15 15 14 14 14 14 14 14 14 14 14
18 18 18 18 18 18 17 17 17 17 17 17 17 16 16 16 16 16 16 16 16 16 16 16 16 16 16 15 15 15 15 15 15 14 14 14 14 14 14 13 13 13 13
18 18 18 18 18 18 17 17 17 17 17 17 17 17 17 17 16 16 16 16 16 16 15 16 16 15 15 15 15 15 15 14 14 14 14 14 14 14 13 13 13 13 13
18 18 18 18 18 18 18 17 17 17 17 17 17 17 17 16 16 16 16 16 16 16 15 16 15 15 15 15 15 15 14 14 14 14 14 14 13 13 13 13 13 13 13
18 18 18 18 18 18 18 17 17 17 17 17 17 17 16 16 16 16 16 16 16 15 15 15 15 15 15 15 14 14 14 14 14 14 13 13 13 13 13 13 13 13 13
18 18 18 18 18 18 17 17 17 17 17 17 17 16 16 16 16 16 16 16 15 15 15 15 15 15 15 14 14 14 14 14 14 13 13 13 13 13 13 13 13 12 12
18 18 18 18 18 17 17 17 17 17 17 17 17 16 16 16 16 16 16 15 15 15 15 15 15 15 14 14 14 14 14 14 13 13 13 13 13 13 13 13 12 12 12
18 18 18 18 17 17 17 17 17 17 17 17 16 16 16 16 16 16 15 15 15 15 15 15 15 14 14 14 14 14 14 13 13 13 13 13 13 13 13 12 12 12 12
18 18 18 17 17 17 17 17 17 17 16 16 16 16 16 16 16 16 15 15 15 15 15 15 15 14 15 14 14 13 13 13 13 13 13 13 13 13 13 12 12 12 12
18 18 18 17 17 17 17 17 17 16 16 16 16 16 16 16 16 16 15 15 15 15 15 15 15 15 15 14 14 13 13 13 13 13 12 12 13 13 13 12 12 12 12
17 17 17 17 17 17 17 17 16 16 16 16 16 16 16 16 16 16 15 15 15 15 15 15 15 15 14 14 14 13 13 13 12 12 12 12 12 12 12 12 12 12 11
17 17 17 17 17 17 16 16 16 16 16 16 16 16 16 16 16 15 15 15 15 15 15 15 14 14 14 14 14 13 13 12 12 12 12 12 12 12 12 12 12 12 11
17 17 17 16 16 16 16 16 16 16 15 15 15 15 15 15 15 15 15 15 15 15 15 15 14 14 14 14 13 13 13 12 12 12 12 12 12 11 11 12 12 12 11
Wind_Speed
3 3 3 3 3 3 3 3 3 3 3 3 3 3 4 5 4 5 6 8 8 8 8 8 8 8 8 8 8 8 8 7 7 7 7 7 7 7 6 6 6 6 7
4 3 2 2 2 2 2 3 3 3 3 3 3 3 3 4 4 4 5 6 7 7 7 8 8 7 7 7 7 7 7 7 7 7 7 7 7 7 7 7 7 7 7
4 4 3 2 2 3 3 3 3 3 3 3 3 2 2 3 3 3 4 5 5 6 7 7 8 8 7 7 7 7 6 7 7 7 7 7 7 7 7 7 7 7 7
6 4 3 2 2 3 3 3 3 3 3 3 3 2 2 2 2 3 3 3 4 4 5 6 7 8 7 7 7 7 7 7 7 7 8 8 8 8 7 7 7 7 7
6 5 3 2 3 3 2 3 3 3 3 3 3 2 1 1 0 2 2 3 3 3 4 4 6 7 7 7 7 7 8 8 8 8 8 8 8 8 8 8 7 7 7
6 5 3 3 4 3 3 3 4 3 3 3 3 2 2 1 0 1 2 3 3 4 4 3 4 4 5 6 7 7 7 8 8 8 8 8 8 7 8 8 8 8 7
6 5 3 3 3 3 3 4 4 4 3 3 3 2 2 2 1 0 1 2 2 3 3 3 3 3 3 3 4 5 6 7 7 7 7 7 7 7 7 8 8 8 8
5 5 4 3 3 3 4 4 4 3 2 2 2 2 1 2 2 1 0 1 2 2 2 3 3 3 3 2 3 3 4 4 4 4 5 6 6 6 6 6 7 8 8
4 5 5 4 4 4 4 4 4 4 3 1 1 2 2 2 1 1 1 1 1 1 2 2 3 4 3 3 2 2 1 0 1 1 2 4 5 6 6 7 7 7 7
4 4 5 5 4 4 4 4 4 3 4 3 1 1 1 3 2 0 1 1 0 1 1 2 2 3 3 3 2 2 1 1 1 1 1 1 2 2 4 4 4 5 5
2 3 4 4 4 4 4 4 4 4 3 3 3 2 1 1 1 2 1 1 1 1 1 2 2 2 3 4 3 3 2 2 2 2 2 1 1 1 1 1 2 2 3
1 3 4 4 4 4 4 4 4 5 4 4 3 3 3 3 3 3 2 2 2 1 1 1 2 3 4 4 5 5 4 3 3 2 2 1 1 2 1 1 1 1 2
2 3 4 4 4 4 4 4 4 4 5 5 5 4 4 4 3 3 3 2 2 1 1 1 2 3 4 4 5 5 5 5 4 4 3 2 2 2 2 1 1 1 1
4 3 4 4 5 5 5 4 4 4 4 5 5 5 4 4 4 4 4 3 2 2 2 2 1 3 4 5 6 6 5 5 6 5 5 4 4 3 2 2 2 1 1
4 4 4 4 4 5 5 4 4 4 4 4 5 5 4 4 4 4 4 4 4 3 3 3 2 2 3 4 5 5 5 5 6 7 6 6 6 5 4 3 3 2 2
3 4 4 4 4 4 4 5 4 4 4 4 4 5 4 4 4 4 5 4 4 4 3 2 2 2 2 3 4 5 4 5 5 6 7 7 7 6 5 4 4 3 3
4 4 4 4 4 4 4 4 5 5 5 5 4 5 5 4 4 4 4 4 4 4 4 3 1 1 3 3 3 3 4 4 4 5 6 7 7 6 6 5 5 5 4
4 4 4 4 4 4 4 5 6 5 6 6 5 5 5 4 5 4 4 4 4 4 4 4 2 2 2 3 3 3 3 3 4 5 6 7 8 7 7 6 6 5 5
4 4 4 5 5 5 5 5 6 5 5 5 5 6 5 5 5 4 5 5 4 4 3 3 3 2 1 2 2 2 3 2 3 4 6 7 8 8 8 8 8 7 7
4 5 5 5 5 5 5 5 5 5 5 5 5 6 6 6 6 6 5 5 4 4 3 3 2 2 2 2 2 3 2 2 3 3 5 5 7 8 9 9 9 9 9
5 4 4 4 4 4 5 5 6 6 5 5 5 5 6 6 7 6 5 5 5 4 3 3 3 3 3 3 4 3 4 3 3 4 4 4 5 5 7 9 10 10 11
4 3 4 5 5 5 5 7 6 5 5 6 6 5 5 6 6 7 7 7 7 6 6 5 4 5 6 5 4 4 4 3 4 4 4 5 4 5 6 8 10 12 12
4 4 5 5 6 6 7 7 8 6 6 6 6 5 4 4 5 4 5 6 7 9 9 8 7 7 7 7 6 6 6 6 5 3 4 5 4 6 6 9 12 13 13
4 5 5 5 5 6 7 7 7 5 5 5 5 6 6 5 5 5 5 5 5 7 8 8 8 8 8 7 8 7 6 5 4 3 5 4 4 5 5 7 12 14 14
4 4 4 4 5 5 5 6 5 3 4 5 6 6 6 7 7 7 6 6 5 5 6 8 8 8 8 9 8 5 4 4 5 4 5 4 3 3 3 5 8 12 13
4 3 3 3 4 4 4 5 5 3 4 5 4 5 7 8 7 8 7 7 7 6 4 4 5 6 7 8 10 9 8 6 4 4 5 5 3 2 3 3 4 6 8
Wind_Direction
112 106 103 101 97 103 99 98 92 84 84 89 97 112 126 139 149 161 174 182 186 184 183 183 186 186 187 188 192 192 193 196 197 197 200 203 204 205 206 210 213 213 209
137 127 115 109 109 119 118 113 102 95 90 94 88 93 114 129 138 154 166 176 180 182 185 187 190 189 191 193 197 195 198 200 200 203 208 212 212 211 212 216 217 217 214
154 149 136 132 139 130 118 109 99 98 101 101 94 97 112 129 136 150 158 171 181 188 193 199 199 200 201 200 198 201 206 207 209 213 217 217 215 214 215 217 217 217 219
157 150 147 155 150 128 120 118 111 101 94 98 92 79 89 110 138 156 164 172 177 190 202 210 210 210 212 212 208 210 212 215 216 221 224 225 222 218 214 218 220 220 224
158 151 152 156 144 128 125 129 111 114 110 101 87 72 75 99 139 166 175 189 193 198 207 216 216 220 223 225 225 223 222 225 227 226 227 225 222 217 218 221 223 224 227
161 154 151 147 138 125 123 123 119 110 117 113 92 65 42 36 73 178 209 200 204 210 216 219 219 225 227 230 235 236 234 235 234 228 228 227 221 218 222 224 228 231 232
162 157 152 146 143 145 149 142 128 123 120 115 98 64 31 35 55 248 210 201 209 209 203 209 213 216 228 242 248 250 251 247 238 230 227 223 220 221 223 226 230 234 235
171 166 159 155 147 142 141 147 142 136 145 139 128 112 41 8 20 36 90 194 206 192 201 208 196 195 201 222 255 260 259 255 243 226 217 215 216 219 223 229 237 241 243
175 168 168 159 155 156 166 172 163 158 164 155 147 147 150 205 311 4 29 55 148 180 201 202 199 194 197 210 234 266 263 273 240 198 199 209 217 225 230 237 244 244 243
174 173 170 168 166 165 175 185 175 163 156 168 159 151 158 155 161 248 338 359 22 202 207 199 190 195 199 198 208 222 202 156 122 116 119 151 195 216 230 235 245 248 238
184 185 181 174 175 177 184 188 172 170 170 174 173 160 144 128 159 180 241 282 323 274 230 218 202 205 205 203 203 209 210 189 164 143 138 147 160 166 173 234 244 245 241
201 201 192 189 190 188 192 194 187 182 186 184 185 179 173 175 186 184 211 242 258 273 244 224 212 213 212 208 208 206 205 194 182 174 174 187 188 189 191 211 223 249 255
212 217 202 196 198 198 198 194 192 198 195 194 199 203 202 203 181 172 179 212 241 259 253 231 222 214 211 207 208 205 201 196 197 195 196 204 213 208 204 219 254 260 262
218 211 200 202 203 198 198 193 199 209 203 208 214 210 211 213 196 185 181 182 216 249 243 242 222 213 209 203 204 202 205 206 206 205 205 203 203 206 216 232 253 257 257
216 203 197 201 201 199 197 190 204 211 203 212 219 215 216 218 207 202 193 189 187 220 242 224 216 210 201 194 196 195 203 211 213 214 214 210 205 205 213 223 229 230 235
215 208 205 203 204 204 200 198 209 217 215 223 219 217 220 221 210 205 202 203 197 200 227 219 212 207 193 187 191 193 199 206 215 216 216 212 207 207 211 218 223 226 230
206 209 211 205 205 207 204 206 218 215 220 229 229 224 230 218 214 208 200 199 200 193 223 244 215 203 193 194 190 195 198 204 219 222 220 216 212 211 213 219 225 226 223
210 210 207 207 212 215 211 213 225 225 224 230 233 230 235 224 217 212 202 203 202 196 204 228 230 209 213 200 194 199 207 217 226 226 223 222 218 217 218 220 228 232 228
214 211 205 211 218 218 218 220 224 225 227 232 231 231 234 222 225 219 212 211 207 201 196 206 222 214 217 191 192 213 217 228 233 235 230 228 225 228 231 232 233 234 231
215 217 216 217 219 222 223 223 225 226 229 233 233 231 229 224 227 221 217 214 203 196 193 199 216 222 218 193 192 216 229 234 239 236 234 232 231 236 238 236 235 234 233
225 223 221 227 223 224 227 225 228 230 232 238 239 237 234 227 224 218 216 207 196 199 199 208 219 222 220 202 212 210 224 239 247 231 235 237 234 236 238 238 235 234 232
220 216 226 229 230 234 235 225 222 232 235 238 244 243 237 232 227 217 212 201 193 199 208 212 221 225 229 222 212 208 212 223 244 218 217 243 226 238 240 237 236 234 233
215 218 226 231 237 242 235 230 224 226 233 237 239 237 238 234 215 218 215 209 211 212 207 209 218 226 225 216 204 210 214 223 234 210 201 239 229 240 241 239 234 234 233
223 230 232 233 238 248 237 234 228 231 237 235 233 226 225 235 224 207 209 220 230 231 224 220 223 227 226 216 206 211 219 228 242 218 199 230 230 239 245 240 233 229 230
230 234 236 233 234 248 235 229 217 223 235 241 240 235 229 234 230 205 203 220 240 251 239 225 226 230 224 213 201 196 201 214 244 236 203 219 228 238 248 243 231 225 227
226 233 242 240 233 248 245 230 213 221 241 252 252 247 236 235 230 210 212 218 234 245 240 237 235 238 232 221 205 207 209 217 231 234 203 204 216 209 244 238 229 224 228
Height
1536 1537 1539 1540 1542 1544 1545 1547 1549 1551 1552 1554 1556 1557 1558 1560 1561 1563 1564 1565 1566 1567 1568 1569 1570 1571 1572 1573 1574 1574 1575 1576 1577 1577 1578 1579 1580 1581 1581 1582 1583 1583 1584
1538 1539 1541 1543 1544 1546 1547 1549 1551 1552 1554 1555 1557 1558 1559 1560 1562 1563 1564 1565 1566 1567 1568 1569 1570 1571 1571 1572 1573 1573 1574 1575 1576 1576 1577 1578 1578 1579 1580 1580 1581 1582 1583
1540 1541 1543 1544 1546 1547 1549 1550 1552 1554 1555 1556 1558 1559 1560 1561 1562 1563 1564 1565 1566 1567 1568 1569 1570 1570 1571 1572 1572 1573 1573 1574 1574 1575 1575 1576 1576 1577 1578 1579 1579 1580 1581
1541 1543 1544 1546 1547 1549 1550 1552 1553 1555 1556 1557 1558 1559 1561 1562 1562 1563 1564 1565 1566 1567 1568 1569 1569 1570 1570 1571 1571 1572 1572 1572 1573 1573 1574 1574 1574 1575 1576 1577 1577 1578 1579
1542 1544 1545 1547 1548 1550 1551 1553 1554 1555 1557 1558 1559 1560 1561 1562 1562 1563 1564 1565 1566 1567 1567 1568 1569 1569 1570 1570 1570 1570 1570 1571 1571 1571 1571 1572 1572 1573 1574 1575 1575 1576 1576
1543 1545 1546 1548 1549 1550 1552 1553 1554 1556 1557 1558 1559 1560 1561 1561 1562 1562 1563 1564 1565 1566 1567 1567 1568 1568 1568 1568 1569 1569 1569 1569 1569 1569 1569 1570 1570 1571 1572 1572 1573 1573 1574
1544 1545 1547 1548 1550 1551 1552 1553 1555 1556 1557 1558 1559 1559 1560 1561 1561 1562 1562 1563 1564 1565 1565 1566 1567 1567 1567 1567 1567 1567 1567 1567 1567 1567 1567 1567 1568 1569 1569 1570 1570 1571 1571
1544 1545 1547 1548 1550 1551 1552 1553 1554 1555 1556 1557 1558 1559 1559 1561 1561 1561 1561 1562 1563 1564 1564 1565 1565 1565 1566 1566 1566 1566 1566 1565 1565 1565 1565 1565 1566 1566 1567 1567 1568 1568 1568
1544 1545 1547 1548 1549 1551 1552 1553 1554 1555 1556 1557 1558 1559 1559 1559 1560 1561 1560 1561 1562 1562 1563 1563 1564 1564 1564 1564 1564 1564 1564 1564 1563 1563 1563 1563 1563 1564 1564 1564 1565 1565 1565
1544 1545 1546 1548 1549 1550 1551 1553 1553 1554 1555 1556 1557 1557 1559 1559 1559 1559 1560 1560 1560 1561 1561 1562 1562 1562 1563 1563 1563 1563 1563 1563 1562 1562 1562 1561 1561 1561 1562 1562 1562 1562 1562
1543 1544 1546 1547 1548 1549 1550 1551 1552 1553 1554 1555 1555 1556 1557 1557 1557 1558 1558 1558 1559 1559 1559 1560 1560 1560 1561 1561 1561 1561 1561 1561 1561 1560 1560 1560 1560 1559 1559 1559 1559 1560 1560
1542 1544 1545 1546 1547 1548 1549 1550 1551 1551 1552 1553 1554 1554 1555 1555 1556 1556 1556 1556 1556 1557 1557 1557 1558 1558 1558 1559 1559 1559 1559 1559 1559 1559 1559 1558 1558 1557 1557 1557 1557 1557 1557
1541 1543 1544 1545 1546 1547 1547 1548 1549 1549 1550 1551 1551 1552 1553 1553 1554 1554 1554 1554 1554 1554 1554 1555 1555 1556 1556 1557 1557 1557 1557 1557 1557 1557 1557 1556 1556 1556 1555 1555 1555 1555 1555
1540 1541 1542 1543 1544 1545 1545 1546 1547 1547 1548 1548 1549 1550 1550 1551 1551 1552 1552 1552 1552 1552 1552 1552 1553 1553 1554 1554 1554 1555 1555 1555 1555 1555 1554 1554 1554 1554 1553 1553 1553 1553 1553
1539 1540 1540 1541 1542 1543 1543 1544 1544 1545 1545 1546 1546 1547 1547 1548 1548 1549 1549 1550 1550 1549 1549 1550 1550 1551 1551 1552 1552 1552 1552 1553 1552 1552 1552 1552 1551 1551 1551 1551 1551 1550 1550
1537 1538 1538 1539 1540 1540 1541 1541 1542 1542 1542 1543 1543 1544 1544 1545 1545 1546 1546 1546 1547 1547 1547 1546 1547 1548 1549 1549 1549 1550 1550 1550 1549 1549 1549 1549 1549 1548 1548 1548 1548 1548 1548
1534 1535 1536 1537 1537 1538 1538 1538 1539 1539 1539 1540 1540 1541 1541 1542 1542 1542 1543 1543 1543 1544 1544 1543 1544 1545 1545 1546 1546 1547 1547 1546 1546 1546 1546 1546 1546 1546 1545 1545 1545 1545 1545
1531 1532 1533 1534 1534 1535 1535 1536 1536 1536 1536 1536 1537 1537 1538 1539 1539 1539 1539 1539 1539 1540 1540 1540 1541 1541 1542 1542 1543 1543 1543 1543 1543 1543 1543 1542 1543 1542 1542 1542 1542 1542 1542
1528 1529 1529 1530 1531 1531 1532 1532 1533 1533 1533 1533 1533 1534 1534 1535 1535 1535 1535 1536 1536 1536 1537 1537 1537 1538 1538 1539 1539 1539 1539 1539 1539 1539 1539 1539 1539 1539 1539 1539 1539 1539 1539
1525 1525 1526 1526 1527 1528 1528 1529 1529 1529 1529 1529 1530 1530 1530 1531 1531 1531 1532 1532 1532 1532 1533 1533 1533 1534 1534 1534 1535 1535 1535 1535 1535 1535 1535 1535 1535 1536 1536 1536 1535 1535 1535
1522 1522 1523 1523 1524 1524 1525 1525 1526 1526 1526 1526 1526 1526 1526 1527 1527 1527 1528 1528 1529 1529 1529 1530 1529 1529 1530 1530 1530 1530 1531 1531 1531 1531 1531 1531 1532 1532 1532 1532 1532 1531 1531
1518 1519 1519 1519 1520 1521 1521 1522 1522 1522 1522 1522 1522 1522 1523 1523 1523 1523 1523 1524 1524 1525 1525 1525 1525 1525 1525 1526 1526 1526 1526 1526 1526 1527 1527 1527 1528 1527 1527 1527 1527 1527 1527
1514 1514 1515 1516 1516 1517 1517 1518 1518 1519 1518 1518 1518 1518 1518 1518 1519 1519 1519 1519 1520 1520 1521 1521 1521 1520 1521 1521 1521 1521 1522 1522 1522 1522 1523 1522 1523 1522 1523 1522 1523 1523 1523
1509 1510 1510 1511 1512 1513 1513 1514 1514 1514 1514 1513 1514 1514 1513 1514 1514 1515 1515 1515 1515 1516 1516 1516 1516 1516 1517 1517 1517 1517 1517 1517 1517 1518 1518 1517 1517 1517 1518 1518 1518 1518 1518
1505 1506 1507 1507 1508 1508 1509 1510 1510 1509 1509 1509 1509 1509 1509 1509 1510 1510 1510 1510 1510 1511 1511 1512 1512 1512 1512 1512 1512 1512 1511 1511 1511 1512 1513 1512 1512 1512 1512 1512 1513 1513 1513
1501 1501 1502 1503 1503 1504 1505 1505 1505 1505 1504 1504 1504 1504 1504 1504 1505 1505 1505 1505 1504 1505 1506 1506 1507 1507 1507 1507 1507 1506 1506 1506 1506 1506 1506 1507 1507 1507 1506 1506 1507 1507 1508